Regional Weather Roundup
Issued by NWS

Home | Current Version | Previous Version | Text Only | Print | Product List | Glossary Off
Versions: 1 2 3 4 5 6 7 8 9 10 11 12 13 14 15 16 17 18 19 20 21 22 23 24 25 26 27 28 29 30 31 32 33 34 35 36 37 38 39 40 41 42 43 44 45 46 47 48 49 50

000
ASUS43 KDMX 190807
RWRIA

WEATHER ROUNDUP FOR IOWA
NATIONAL WEATHER SERVICE DES MOINES IA
300 AM CDT TUE AUG 19 2014

NOTE: "FAIR" INDICATES FEW OR NO CLOUDS BELOW 12,000 FEET WITH NO
SIGNIFICANT WEATHER AND/OR OBSTRUCTIONS TO VISIBILITY.

* - THESE STATIONS ARE NOT NWS STATIONS...THUS NOT UNDER NWS
QUALITY CONTROL.  THEY ALSO DO NOT REPORT WEATHER SUCH
AS PRECIPITATION OR FOG.

IAZ001>003-012>014-020>022-031>034-043>046-190900-
   NORTHWEST IOWA

CITY           SKY/WX    TMP DP  RH WIND       PRES   REMARKS
CARROLL *      MOCLDY    66  66 100 W6        29.77S
CHEROKEE *     CLEAR     64  63  94 CALM      29.77F
DENISON *      CLEAR     66  66 100 CALM      29.76F
LE MARS *      CLEAR     63  61  94 CALM      29.79S
ORANGE CITY *  CLEAR     66  63  88 W3        29.79F
SHELDON *      CLEAR     63  63 100 W5        29.77S
SIOUX CITY     CLEAR     65  62  90 NW6       29.78F
SPENCER        CLEAR     64  62  93 W7        29.78R
STORM LAKE *   CLEAR     64  64 100 W7        29.78F
$$

IAZ055>058-069>071-079>083-090>094-190900-
   SOUTHWEST IOWA

CITY           SKY/WX    TMP DP  RH WIND       PRES   REMARKS
ATLANTIC *     PTCLDY    68  66  94 CALM      29.77S
AUDUBON *      CLEAR     72  68  88 CALM      29.79R
CLARINDA *     MOCLDY    70  70 100 S5        29.79F
COUNCIL BLFS * CLEAR     72  72 100 CALM      29.77S
CRESTON *      CLEAR     70  70 100 W5        29.80R
HARLAN  *      CLEAR     68  68 100 CALM      29.81S
LAMONI         PTCLDY    72  70  93 SW8       29.77F
RED OAK *      MOCLDY    68  68 100 CALM      29.78S
SHENANDOAH *     N/A     70  70 100 NE5       29.77F
$$

IAZ047>049-059>061-072>074-084-190900-
   CENTRAL IOWA

CITY           SKY/WX    TMP DP  RH WIND       PRES   REMARKS
AMES           CLEAR     71  69  93 W8        29.74F
ANKENY *       PTCLDY    73  70  88 W8        29.74F
CHARITON *     MOCLDY    72  72 100 SW6       29.77S FOG
DES MOINES     PTCLDY    72  68  87 W5        29.74S
GRINNELL*      CLEAR     70  68  94 SW3       29.74F FOG
KNOXVILLE *    CLEAR     72  70  94 SW6       29.74S
MARSHALLTOWN   PTCLDY    71  68  90 W8        29.73S
PELLA *        CLEAR     72  72 100 W5        29.75F
PERRY *          N/A     70  68  94 W5        29.76S
$$

IAZ004>006-015-016-023>025-035-036-190900-
   NORTH CENTRAL IOWA

CITY           SKY/WX    TMP DP  RH WIND       PRES   REMARKS
ALGONA *       CLEAR     66  63  88 W7        29.76R
CLARION *      CLEAR     68  66  94 W6        29.75R
ESTHERVILLE    CLEAR     63  61  93 W7        29.76R
FORT DODGE *   CLEAR     68  64  88 W3        29.76S
MASON CITY     CLEAR     66  64  93 W8        29.74R
FOREST CITY *  CLEAR     63  63 100 SW3       29.73R
IOWA FALLS *   MOCLDY    70  66  88 W6        29.75R
$$

IAZ007>011-017>019-026>030-037>042-050>054-066-190900-
   NORTHEAST IOWA

CITY           SKY/WX    TMP DP  RH WIND       PRES   REMARKS
CEDAR RAPIDS   PTCLDY    72  70  93 SW8       29.73R
CHARLES CITY * CLEAR     66  64  94 SW3       29.71S
CLINTON *      MOCLDY    72  68  88 SW9       29.76R
DECORAH *      PTCLDY    66  64  94 SW5       29.69S
DUBUQUE        LGT RAIN  70  67  90 SW6       29.73F
MONTICELLO *   CLEAR     72  70  94 S6        29.72F
OELWEIN *      MOCLDY    64  63  94 SW6       29.72S
WATERLOO       CLOUDY    68  66  93 SW6       29.70S
$$

IAZ064-065-067-068-078-190900-
   EAST CENTRAL IOWA

CITY           SKY/WX    TMP DP  RH WIND       PRES   REMARKS
DAVENPORT      PTCLDY    72  68  87 SW8       29.75F
IOWA CITY      CLEAR     72  70  93 SW7       29.74S
MT. PLEASANT * CLEAR     70  68  94 SW7       29.77R FOG
MUSCATINE *    CLEAR     73  70  88 SW8       29.75S
QUAD CITIES    PTCLDY    73  69  87 SW9       29.73F
$$

IAZ062-063-075>077-085>089-095>099-190900-
   SOUTHEAST IOWA

CITY           SKY/WX    TMP DP  RH WIND       PRES   REMARKS
BURLINGTON     LGT RAIN  69  68  96 S6        29.77S FOG
FAIRFIELD *    PTCLDY    70  68  94 S3        29.75F
FORT MADISON * CLEAR     72  72 100 S5        29.78S FOG
KEOKUK *       CLEAR     72  70  94 S5        29.77S FOG
OSKALOOSA *      N/A     68  66  94 S7        29.74F FOG
CENTERVILLE *  CLEAR     70  70 100 S6        29.79S
OTTUMWA        PTCLDY    71  69  93 SW7       29.75F
WASHINGTON *   CLEAR     70  70 100 SW7       29.75S
$$

ABBREVIATIONS USED IN REMARKS
   TC - TEMPERATURES IN CELSIUS
  WCI - WIND CHILL INDEX
   HX - HEAT INDEX
  VSB - VISIBILITY
$$



USA.gov is the U.S. government's official web portal to all federal, state and local government web resources and services.